SV1IW Athens current weather conditions

sailwx.info

Wind from 347 at 5 knots gusting 17

Air temperature 26.1° C
Dewpoint 13.2° C

Last reported at 2014-Aug-29 23:30 UTC.
Time now 2014-Aug-30 08:36 UTC

Location: N 37°58' E 023°43'.
View on Google Maps.

See reports from other nearby stations

  
Tides and Currents Weather Stations Pressure Air Temp Water Temp Dewpoint Dewpoint Depression Visibility Wind Speed Wind Dir Waves Ship Positions
date/time (UTC)wind fromknots sea level pressurealtimeterstation pressurevisibilityair tempwater tempwave heightnotes
2014-Aug-29 23:30 347 5 gusting 17 26.1
2014-Aug-29 23:00 356 6 gusting 13 26.7
2014-Aug-29 22:30 004 6 gusting 13 26.7
2014-Aug-29 22:00 019 4 gusting 13 26.7
2014-Aug-29 21:30 022 7 gusting 18 27.2
2014-Aug-29 21:00 347 6 gusting 14 27.2
2014-Aug-29 20:30 343 6 gusting 18 27.8
2014-Aug-29 20:00 348 8 gusting 14 27.8
2014-Aug-29 19:30 010 7 gusting 17 28.3
2014-Aug-29 19:01 358 6 gusting 20 28.3
2014-Aug-29 18:30 343 6 gusting 14 28.9
2014-Aug-29 18:01 353 8 gusting 18 28.9
2014-Aug-29 17:30 351 6 gusting 17 29.4
2014-Aug-29 17:00 337 10 gusting 18 30.0
2014-Aug-29 16:30 348 6 gusting 14 30.6
2014-Aug-29 16:00 344 5 gusting 19 32.2
2014-Aug-29 15:30 345 6 gusting 21 32.8
2014-Aug-29 15:00 315 5 gusting 17 32.8
2014-Aug-29 14:30 342 6 gusting 18 33.3
2014-Aug-29 14:00 001 8 gusting 19 33.3
2014-Aug-29 13:30 003 6 gusting 19 33.3
2014-Aug-29 13:00 351 5 gusting 17 33.9
2014-Aug-29 12:30 002 8 gusting 14 33.9
2014-Aug-29 12:00 349 7 gusting 15 33.9
2014-Aug-29 11:30 343 6 gusting 13 33.9
2014-Aug-29 11:00 027 6 gusting 17 34.4
2014-Aug-29 10:30 349 6 gusting 13 33.3
2014-Aug-29 10:00 353 7 gusting 17 32.8
2014-Aug-29 09:30 342 6 gusting 13 32.2